TimeMST,TemperatureF,Dew PointF,Humidity,Sea Level PressureIn,VisibilityMPH,Wind Direction,Wind SpeedMPH,Gust SpeedMPH,PrecipitationIn,Events,Conditions,WindDirDegrees,DateUTC
12:51 AM,84.9,28.9,13,29.66,10.0,Calm,Calm,-,N/A,,Partly Cloudy,0,2014-06-16 07:51:00
1:51 AM,81.0,32.0,17,29.68,10.0,East,6.9,-,N/A,,Partly Cloudy,90,2014-06-16 08:51:00
2:51 AM,79.0,30.9,17,29.69,10.0,East,6.9,-,N/A,,Partly Cloudy,100,2014-06-16 09:51:00
3:51 AM,79.0,32.0,18,29.70,10.0,ENE,5.8,-,N/A,,Partly Cloudy,70,2014-06-16 10:51:00
4:51 AM,75.9,34.0,22,29.71,10.0,East,8.1,-,N/A,,Partly Cloudy,100,2014-06-16 11:51:00
5:51 AM,75.9,27.0,16,29.72,10.0,East,9.2,-,N/A,,Partly Cloudy,80,2014-06-16 12:51:00
6:51 AM,79.0,28.0,15,29.73,10.0,East,8.1,-,N/A,,Partly Cloudy,90,2014-06-16 13:51:00
7:51 AM,82.4,28.4,14,29.81,10.0,East,5.8,-,N/A,,Partly Cloudy,90,2014-06-16 14:51:00
8:51 AM,88.0,27.0,11,29.75,10.0,Variable,3.5,-,N/A,,Partly Cloudy,0,2014-06-16 15:51:00
9:51 AM,91.9,24.1,9,29.76,10.0,East,3.5,-,N/A,,Partly Cloudy,80,2014-06-16 16:51:00
10:51 AM,95.0,21.9,7,29.76,10.0,Variable,3.5,-,N/A,,Partly Cloudy,0,2014-06-16 17:51:00
11:51 AM,99.0,24.1,7,29.75,10.0,WSW,15.0,20.7,N/A,,Scattered Clouds,250,2014-06-16 18:51:00
12:51 PM,100.9,23.0,6,29.73,10.0,West,12.7,27.6,N/A,,Scattered Clouds,260,2014-06-16 19:51:00
1:51 PM,102.0,26.1,7,29.71,10.0,West,13.8,-,N/A,,Mostly Cloudy,270,2014-06-16 20:51:00
2:51 PM,104.0,26.1,6,29.69,10.0,West,17.3,-,N/A,,Mostly Cloudy,260,2014-06-16 21:51:00
3:51 PM,102.9,18.0,5,29.67,10.0,West,15.0,24.2,N/A,,Mostly Cloudy,270,2014-06-16 22:51:00
4:51 PM,102.0,16.0,4,29.66,10.0,West,19.6,26.5,N/A,,Mostly Cloudy,280,2014-06-16 23:51:00
5:51 PM,100.9,15.1,4,29.65,10.0,WNW,19.6,24.2,N/A,,Scattered Clouds,290,2014-06-17 00:51:00
6:51 PM,100.0,16.0,5,29.65,10.0,West,21.9,-,N/A,,Scattered Clouds,280,2014-06-17 01:51:00
7:51 PM,98.1,15.1,5,29.65,10.0,West,16.1,-,N/A,,Scattered Clouds,270,2014-06-17 02:51:00
8:51 PM,93.9,19.9,7,29.65,10.0,WSW,6.9,-,N/A,,Scattered Clouds,240,2014-06-17 03:51:00
9:51 PM,91.0,21.0,8,29.68,10.0,SW,4.6,-,N/A,,Scattered Clouds,230,2014-06-17 04:51:00
10:51 PM,91.0,19.0,7,29.68,10.0,SW,5.8,-,N/A,,Scattered Clouds,220,2014-06-17 05:51:00
11:51 PM,91.9,14.0,6,29.68,10.0,SW,5.8,-,N/A,,Scattered Clouds,230,2014-06-17 06:51:00